Litchfield, MN

6:20 AM CST on December 04, 2016 (GMT -0600)
Litchfield Municipal

Weather History for KLJF - June, 2013

Change the Weather History Date:

Sunday, June 16, 2013

  Actual Average Record
Temperature  
Mean Temperature 73 °F -  
Max Temperature 86 °F 76 °F 91 °F (1971)
Min Temperature 60 °F 54 °F 42 °F (1972)
Cooling Degree Days 8    
Growing Degree Days 23 (Base 50)    
Moisture  
Dew Point 52 °F    
Average Humidity 55    
Maximum Humidity 100    
Minimum Humidity 23    
Precipitation  
Precipitation 0.00 in - - ()
Sea Level Pressure  
Sea Level Pressure 29.91 in    
Wind  
Wind Speed 5 mph (West)    
Max Wind Speed 18 mph    
Max Gust Speed 39 mph    
Visibility 10 miles    
Events Rain , Thunderstorm    
Averages and records for this station are not official NWS values.
T = Trace of Precipitation, MM = Missing Value Source: NWS Daily Summary

Daily Weather History Graph

Daily Weather History Graph

Search for Another Location

Airport or City:

Trip Planner

Search our weather history database for the weather conditions in past years. The results will help you decide how hot, cold, wet, or windy it might be!

Date:

Astronomy

Jun. 16, 2013 Rise Set
Actual Time 5:30 AM CDT 9:07 PM CDT
Civil Twilight 4:52 AM CDT 9:44 PM CDT
Nautical Twilight 4:02 AM CDT 10:34 PM CDT
Astronomical Twilight 2:56 AM CDT 11:41 PM CDT
Moon 1:27 PM CDT (6/16) 12:54 AM CDT (6/16)
Length of Visible Light 16h 52m
Length of Day
15h 37m
Waxing Crescent, 50% of the Moon is Illuminated
Jun 16
Waxing Crescent
Jun 16
First Quarter
Jun 23
Full
Jun 29
Last Quarter
Jul 8
New

Hourly Weather History & Observations

Time (CDT) Temp. Dew Point Humidity Pressure Visibility Wind Dir Wind Speed Gust Speed Precip Events Conditions
12:13 AM 66.2 °F 50.0 °F 56% 29.91 in 10.0 mi Calm Calm - N/A   Clear
12:33 AM 66.2 °F 48.2 °F 52% 29.91 in 10.0 mi Calm Calm - N/A   Clear
12:52 AM 64.4 °F 50.0 °F 59% 29.91 in 10.0 mi Calm Calm - N/A   Unknown
1:13 AM 64.4 °F 50.0 °F 59% 29.91 in 10.0 mi Calm Calm - N/A   Unknown
1:32 AM 64.4 °F 48.2 °F 56% 29.91 in 10.0 mi West 5.8 mph - N/A   Clear
1:53 AM 66.2 °F 48.2 °F 52% 29.91 in 10.0 mi West 3.5 mph - N/A   Clear
2:13 AM 64.4 °F 48.2 °F 56% 29.91 in 10.0 mi West 4.6 mph - N/A   Clear
2:32 AM 64.4 °F 50.0 °F 59% 29.91 in 10.0 mi West 4.6 mph - N/A   Clear
2:53 AM 64.4 °F 50.0 °F 59% 29.91 in 10.0 mi West 5.8 mph - N/A   Clear
3:13 AM 64.4 °F 50.0 °F 59% 29.91 in 10.0 mi West 4.6 mph - N/A   Scattered Clouds
3:32 AM 62.6 °F 50.0 °F 63% 29.92 in 10.0 mi WSW 4.6 mph - N/A   Unknown
3:53 AM 62.6 °F 48.2 °F 59% 29.92 in 10.0 mi WSW 5.8 mph - N/A   Unknown
4:12 AM 62.6 °F 48.2 °F 59% 29.91 in 10.0 mi WSW 5.8 mph - N/A   Unknown
4:33 AM 60.8 °F 50.0 °F 68% 29.92 in 10.0 mi West 4.6 mph - N/A   Clear
4:52 AM 62.6 °F 50.0 °F 63% 29.93 in 10.0 mi SW 5.8 mph - N/A   Clear
5:13 AM 60.8 °F 50.0 °F 68% 29.93 in 10.0 mi WSW 4.6 mph - N/A   Clear
5:33 AM 60.8 °F 51.8 °F 72% 29.92 in 10.0 mi West 5.8 mph - N/A   Clear
5:52 AM 60.8 °F 51.8 °F 72% 29.93 in 10.0 mi West 4.6 mph - N/A   Unknown
6:13 AM 62.6 °F 51.8 °F 68% 29.94 in 10.0 mi West 4.6 mph - N/A   Unknown
6:33 AM 62.6 °F 51.8 °F 68% 29.94 in 10.0 mi West 3.5 mph - N/A   Unknown
6:52 AM 64.4 °F 51.8 °F 64% 29.94 in 10.0 mi West 5.8 mph - N/A   Clear
7:13 AM 66.2 °F 51.8 °F 60% 29.94 in 10.0 mi West 4.6 mph - N/A   Unknown
7:33 AM 68.0 °F 53.6 °F 60% 29.94 in 10.0 mi West 5.8 mph - N/A   Unknown
7:52 AM 69.8 °F 53.6 °F 56% 29.95 in 10.0 mi West 4.6 mph - N/A   Clear
8:13 AM 69.8 °F 51.8 °F 53% 29.94 in 10.0 mi West 3.5 mph - N/A   Clear
8:33 AM - - N/A% 29.94 in 10.0 mi WNW 4.6 mph - N/A   Clear
8:52 AM 73.4 °F 53.6 °F 50% 29.95 in 10.0 mi West 4.6 mph - N/A   Clear
9:13 AM 73.4 °F 53.6 °F 50% 29.95 in 10.0 mi WNW 4.6 mph - N/A   Clear
9:33 AM 75.2 °F 51.8 °F 44% 29.95 in 10.0 mi West 6.9 mph - N/A   Clear
9:52 AM 77.0 °F 48.2 °F 36% 29.94 in 10.0 mi WNW 10.4 mph - N/A   Clear
10:13 AM 78.8 °F 48.2 °F 34% 29.94 in 10.0 mi West 10.4 mph 17.3 mph N/A   Clear
10:33 AM 78.8 °F 46.4 °F 32% 29.94 in 10.0 mi West 13.8 mph 18.4 mph N/A   Clear
10:52 AM 80.6 °F 46.4 °F 30% 29.94 in 10.0 mi West 11.5 mph - N/A   Clear
11:13 AM 80.6 °F 42.8 °F 26% 29.94 in 10.0 mi WNW 13.8 mph 20.7 mph N/A   Clear
11:33 AM 80.6 °F 44.6 °F 28% 29.93 in 10.0 mi WNW 11.5 mph 18.4 mph N/A   Clear
11:52 AM 80.6 °F 44.6 °F 28% 29.93 in 10.0 mi West 12.7 mph 20.7 mph N/A   Clear
12:13 PM 80.6 °F 44.6 °F 28% 29.93 in 10.0 mi NW 10.4 mph 20.7 mph N/A   Clear
12:32 PM 82.4 °F 44.6 °F 26% 29.92 in 10.0 mi WNW 11.5 mph 19.6 mph N/A   Clear
12:53 PM 82.4 °F 44.6 °F 26% 29.91 in 10.0 mi West 12.7 mph 20.7 mph N/A   Clear
1:12 PM 84.2 °F 44.6 °F 25% 29.91 in 10.0 mi WNW 13.8 mph - N/A   Clear
1:33 PM 82.4 °F 42.8 °F 25% 29.91 in 10.0 mi WNW 13.8 mph 19.6 mph N/A   Clear
1:53 PM 84.2 °F 44.6 °F 25% 29.91 in 10.0 mi NW 11.5 mph 19.6 mph N/A   Clear
2:12 PM 84.2 °F 44.6 °F 25% 29.92 in 10.0 mi WNW 13.8 mph 19.6 mph N/A   Clear
2:33 PM 84.2 °F 44.6 °F 25% 29.91 in 10.0 mi WNW 6.9 mph 19.6 mph N/A   Clear
2:53 PM 86.0 °F 44.6 °F 23% 29.91 in 10.0 mi West 11.5 mph 19.6 mph N/A   Clear
3:13 PM 84.2 °F 42.8 °F 23% 29.90 in 10.0 mi WNW 13.8 mph 20.7 mph N/A   Clear
3:33 PM 86.0 °F 46.4 °F 25% 29.89 in 10.0 mi West 12.7 mph 18.4 mph N/A   Clear
3:53 PM 84.2 °F 46.4 °F 27% 29.89 in 10.0 mi WNW 10.4 mph 19.6 mph N/A   Scattered Clouds
4:12 PM 84.2 °F 46.4 °F 27% 29.88 in 10.0 mi West 9.2 mph 20.7 mph N/A   Scattered Clouds
4:33 PM 84.2 °F 46.4 °F 27% 29.88 in 10.0 mi West 12.7 mph 18.4 mph N/A   Scattered Clouds
4:52 PM 82.4 °F 46.4 °F 28% 29.88 in 10.0 mi West 9.2 mph 21.9 mph N/A   Scattered Clouds
5:13 PM 82.4 °F 44.6 °F 26% 29.90 in 10.0 mi NW 18.4 mph 24.2 mph N/A Rain Light Rain
5:33 PM 69.8 °F 55.4 °F 60% 29.91 in 10.0 mi North 10.4 mph 21.9 mph N/A Rain , Thunderstorm Light Thunderstorms and Rain
5:52 PM 64.4 °F 60.8 °F 88% 29.94 in 2.5 mi NNW 10.4 mph 39.1 mph N/A Rain , Thunderstorm Heavy Thunderstorms and Rain
6:13 PM 71.6 °F 62.6 °F 73% 29.91 in 10.0 mi Calm Calm - N/A   Scattered Clouds
6:33 PM 73.4 °F 59.0 °F 61% 29.90 in 10.0 mi Calm Calm - N/A   Clear
6:52 PM 69.8 °F 66.2 °F 88% 29.89 in 10.0 mi Calm Calm - N/A   Clear
7:13 PM 73.4 °F 64.4 °F 73% 29.88 in 10.0 mi Calm Calm - N/A   Clear
7:33 PM 73.4 °F 64.4 °F 73% 29.88 in 10.0 mi Calm Calm - N/A   Clear
7:53 PM 71.6 °F 66.2 °F 83% 29.87 in 10.0 mi Calm Calm - N/A   Clear
8:13 PM 71.6 °F 66.2 °F 83% 29.87 in 10.0 mi Calm Calm - N/A   Clear
8:33 PM 69.8 °F 66.2 °F 88% 29.87 in 10.0 mi Calm Calm - N/A   Clear
8:52 PM 68.0 °F 66.2 °F 94% 29.87 in 10.0 mi Calm Calm - N/A   Clear
9:13 PM 66.2 °F 64.4 °F 94% 29.87 in 10.0 mi Calm Calm - N/A   Clear
9:33 PM 64.4 °F 64.4 °F 100% 29.88 in 10.0 mi Calm Calm - N/A   Scattered Clouds
9:52 PM 66.2 °F 60.8 °F 83% 29.89 in 10.0 mi Calm Calm - N/A   Scattered Clouds
10:13 PM 64.4 °F 60.8 °F 88% 29.89 in 10.0 mi Calm Calm - N/A   Unknown
10:33 PM 66.2 °F 60.8 °F 83% 29.89 in 10.0 mi Calm Calm - N/A   Unknown
10:52 PM 66.2 °F 59.0 °F 78% 29.89 in 10.0 mi Calm Calm - N/A   Clear
11:13 PM 66.2 °F 59.0 °F 78% 29.89 in 10.0 mi Calm Calm - N/A   Clear
11:33 PM 64.4 °F 59.0 °F 83% 29.89 in 7.0 mi Calm Calm - N/A   Clear
11:53 PM 64.4 °F 59.0 °F 83% 29.89 in 10.0 mi Calm Calm - N/A   Clear